Overview Statistics Trail Chart Weather Telemetry Raw packets
 

This is the latest recevied weather packets stored in our database for station/object OK0BH-6. If no packets are shown the sender has not sent any weather packets the latest 10 day(s).

<< 55 56 57 58 59 60 61 >>
Time Temp. Humidity Pressure Rain* Wind** Luminosity Snow
1787771629 18.89° C 46% 1020.2 hPa - - - -
1787771054 18.89° C 46% 1020 hPa - - - -
1787770479 19.44° C 46% 1020 hPa - - - -
1787769904 19.44° C 46% 1020.1 hPa - - - -
1787769329 19.44° C 46% 1020.1 hPa - - - -
1787768755 19.44° C 46% 1020 hPa - - - -
1787768180 20° C 46% 1019.7 hPa - - - -
1787767605 20° C 46% 1019.8 hPa - - - -
1787767030 20.56° C 46% 1019.9 hPa - - - -
1787766455 20.56° C 46% 1019.8 hPa - - - -
1787765880 21.11° C 45% 1019.8 hPa - - - -
1787765305 21.11° C 45% 1019.8 hPa - - - -
1787764731 21.67° C 45% 1019.9 hPa - - - -
1787764156 21.67° C 45% 1019.9 hPa - - - -
1787763581 21.67° C 45% 1020 hPa - - - -
1787763006 22.22° C 45% 1019.9 hPa - - - -
1787762431 22.78° C 45% 1019.8 hPa - - - -
1787761856 22.78° C 44% 1019.8 hPa - - - -
1787761281 23.33° C 44% 1019.8 hPa - - - -
1787760706 23.89° C 44% 1019.7 hPa - - - -
1787760131 23.89° C 44% 1019.6 hPa - - - -
1787759557 23.89° C 44% 1019.5 hPa - - - -
1787758982 24.44° C 43% 1019.6 hPa - - - -
1787758407 24.44° C 43% 1019.7 hPa - - - -
1787757832 25.56° C 43% 1019.6 hPa - - - -

* Rain since midnight (hover to see other rain measurements)
** Current wind speed in m/s (hover to see current wind gust speed)